TimeEDT,TemperatureF,Dew PointF,Humidity,Sea Level PressureIn,VisibilityMPH,Wind Direction,Wind SpeedMPH,Gust SpeedMPH,PrecipitationIn,Events,Conditions,WindDirDegrees,DateUTC
12:25 AM,55.4,53.6,94,29.72,7.0,Calm,Calm,-,N/A,,Overcast,0,2013-06-14 04:25:00
12:53 AM,55.9,54.0,93,29.70,6.0,Calm,Calm,-,N/A,,Overcast,0,2013-06-14 04:53:00
1:53 AM,55.9,54.0,93,29.68,8.0,Calm,Calm,-,N/A,,Overcast,0,2013-06-14 05:53:00
2:06 AM,55.4,53.6,94,29.69,9.0,Calm,Calm,-,N/A,,Overcast,0,2013-06-14 06:06:00
2:53 AM,55.9,55.0,97,29.68,6.0,Calm,Calm,-,N/A,,Overcast,0,2013-06-14 06:53:00
3:53 AM,55.9,54.0,93,29.69,9.0,Calm,Calm,-,N/A,,Overcast,0,2013-06-14 07:53:00
4:00 AM,55.4,53.6,94,29.70,9.0,Calm,Calm,-,N/A,,Overcast,0,2013-06-14 08:00:00
4:53 AM,55.9,54.0,93,29.70,8.0,Calm,Calm,-,N/A,,Overcast,0,2013-06-14 08:53:00
5:53 AM,55.9,54.0,93,29.70,8.0,Calm,Calm,-,N/A,,Overcast,0,2013-06-14 09:53:00
6:53 AM,55.9,54.0,93,29.70,3.0,Calm,Calm,-,N/A,,Overcast,0,2013-06-14 10:53:00
7:53 AM,57.9,54.0,87,29.71,5.0,Calm,Calm,-,N/A,,Overcast,0,2013-06-14 11:53:00
8:12 AM,57.2,53.6,88,29.72,10.0,Calm,Calm,-,N/A,,Overcast,0,2013-06-14 12:12:00
8:53 AM,59.0,54.0,83,29.73,10.0,Calm,Calm,-,N/A,,Mostly Cloudy,0,2013-06-14 12:53:00
9:53 AM,62.1,55.0,78,29.72,10.0,Calm,Calm,-,N/A,,Scattered Clouds,0,2013-06-14 13:53:00
10:53 AM,64.9,55.9,73,29.72,10.0,Variable,3.5,-,N/A,,Clear,0,2013-06-14 14:53:00
11:53 AM,72.0,52.0,49,29.70,10.0,Variable,5.8,-,0.01,,Clear,0,2013-06-14 15:53:00
12:53 PM,73.0,46.9,39,29.70,10.0,Variable,6.9,18.4,N/A,,Clear,0,2013-06-14 16:53:00
1:53 PM,75.0,46.9,37,29.70,10.0,Calm,Calm,-,N/A,,Partly Cloudy,0,2013-06-14 17:53:00
2:53 PM,75.9,50.0,40,29.69,10.0,North,5.8,-,N/A,,Mostly Cloudy,10,2013-06-14 18:53:00
3:53 PM,75.9,46.0,35,29.68,10.0,NNE,5.8,-,N/A,,Scattered Clouds,20,2013-06-14 19:53:00
4:53 PM,77.0,46.0,33,29.68,10.0,NNW,9.2,-,N/A,,Mostly Cloudy,330,2013-06-14 20:53:00
5:53 PM,77.0,48.9,37,29.70,10.0,North,10.4,-,N/A,,Clear,360,2013-06-14 21:53:00
6:53 PM,75.9,50.0,40,29.71,10.0,NNW,6.9,-,N/A,,Clear,340,2013-06-14 22:53:00
7:53 PM,73.0,48.9,42,29.74,10.0,North,6.9,-,N/A,,Clear,350,2013-06-14 23:53:00
8:53 PM,64.9,53.1,65,29.76,10.0,Calm,Calm,-,N/A,,Clear,0,2013-06-15 00:53:00
9:53 PM,57.0,53.1,87,29.78,10.0,Calm,Calm,-,N/A,,Clear,0,2013-06-15 01:53:00
10:53 PM,55.0,52.0,89,29.79,10.0,Calm,Calm,-,N/A,,Clear,0,2013-06-15 02:53:00
11:53 PM,54.0,52.0,93,29.80,10.0,Calm,Calm,-,N/A,,Clear,0,2013-06-15 03:53:00